Time,TemperatureF,DewpointF,PressureIn,WindDirection,WindDirectionDegrees,WindSpeedMPH,WindSpeedGustMPH,Humidity,HourlyPrecipIn,Conditions,Clouds,dailyrainin,SoftwareType,DateUTC
2013-06-25 00:00:00,70.2,29.5,29.03,SW,216,0.0,3.0,22,0.00,CLR,,0.00,WeatherDisplay:10.37,2013-06-25 04:00:00,
2013-06-25 00:05:00,70.3,29.6,29.03,SSW,192,0.0,6.0,22,0.00,CLR,,0.00,WeatherDisplay:10.37,2013-06-25 04:05:00,
2013-06-25 00:10:00,70.3,26.1,29.05,SSW,192,0.0,0.0,19,0.00,CLR,,0.00,WeatherDisplay:10.37,2013-06-25 04:10:00,
2013-06-25 00:15:00,70.2,25.9,29.06,SW,224,0.0,0.0,19,0.00,CLR,,0.00,WeatherDisplay:10.37,2013-06-25 04:15:00,
2013-06-25 00:20:00,70.0,25.8,29.06,South,181,2.0,4.0,19,0.00,CLR,,0.00,WeatherDisplay:10.37,2013-06-25 04:20:00,
2013-06-25 00:25:00,69.8,25.6,29.06,ENE,61,0.0,3.0,19,0.00,CLR,,0.00,WeatherDisplay:10.37,2013-06-25 04:25:00,
2013-06-25 00:30:00,69.4,28.9,29.06,North,354,0.0,0.0,22,0.00,CLR,,0.00,WeatherDisplay:10.37,2013-06-25 04:30:00,
2013-06-25 00:35:00,69.3,28.8,29.06,NNW,337,0.0,0.0,22,0.00,CLR,,0.00,WeatherDisplay:10.37,2013-06-25 04:35:00,
2013-06-25 00:40:00,69.1,29.7,29.06,NNW,337,0.0,0.0,23,0.00,CLR,,0.00,WeatherDisplay:10.37,2013-06-25 04:40:00,
2013-06-25 00:45:00,69.0,29.7,29.06,NNW,337,0.0,0.0,23,0.00,CLR,,0.00,WeatherDisplay:10.37,2013-06-25 04:45:00,
2013-06-25 00:50:00,68.9,29.5,29.06,NNW,337,0.0,0.0,23,0.00,CLR,,0.00,WeatherDisplay:10.37,2013-06-25 04:50:00,
2013-06-25 00:55:00,68.7,29.4,29.06,NNW,337,0.0,0.0,23,0.00,CLR,,0.00,WeatherDisplay:10.37,2013-06-25 04:55:00,
2013-06-25 01:00:00,68.5,29.2,29.06,WNW,302,0.0,3.0,23,0.00,CLR,,0.00,WeatherDisplay:10.37,2013-06-25 05:00:00,
2013-06-25 01:05:00,68.6,29.3,29.06,WSW,251,0.0,2.0,23,0.00,CLR,,0.00,WeatherDisplay:10.37,2013-06-25 05:05:00,
2013-06-25 01:10:00,68.8,29.5,29.06,SSW,197,0.0,2.0,23,0.00,CLR,,0.00,WeatherDisplay:10.37,2013-06-25 05:10:00,
2013-06-25 01:15:00,68.9,29.5,29.06,SSE,155,0.0,0.0,23,0.00,CLR,,0.00,WeatherDisplay:10.37,2013-06-25 05:15:00,
2013-06-25 01:20:00,68.9,29.5,29.06,SSE,150,0.0,0.0,23,0.00,CLR,,0.00,WeatherDisplay:10.37,2013-06-25 05:20:00,
2013-06-25 01:25:00,68.9,29.6,29.06,South,176,0.0,0.0,23,0.00,CLR,,0.00,WeatherDisplay:10.37,2013-06-25 05:25:00,
2013-06-25 01:30:00,68.9,29.5,29.06,SW,226,0.0,3.0,23,0.00,CLR,,0.00,WeatherDisplay:10.37,2013-06-25 05:30:00,
2013-06-25 01:35:00,68.8,29.5,29.06,WSW,247,0.0,0.0,23,0.00,CLR,,0.00,WeatherDisplay:10.37,2013-06-25 05:35:00,
2013-06-25 01:40:00,68.9,29.5,29.06,WSW,247,0.0,0.0,23,0.00,CLR,,0.00,WeatherDisplay:10.37,2013-06-25 05:40:00,
2013-06-25 01:45:00,69.1,29.7,29.06,SW,214,0.0,0.0,23,0.00,CLR,,0.00,WeatherDisplay:10.37,2013-06-25 05:45:00,
2013-06-25 01:50:00,69.1,29.7,29.06,South,176,0.0,0.0,23,0.00,CLR,,0.00,WeatherDisplay:10.37,2013-06-25 05:50:00,
2013-06-25 02:00:00,69.3,29.8,29.06,SSW,212,0.0,3.0,23,0.00,CLR,,0.00,WeatherDisplay:10.37,2013-06-25 06:00:00,
2013-06-25 02:05:00,69.3,29.8,29.06,WSW,248,0.0,2.0,23,0.00,CLR,,0.00,WeatherDisplay:10.37,2013-06-25 06:05:00,
2013-06-25 02:10:00,69.4,30.0,29.06,West,261,0.0,0.0,23,0.00,CLR,,0.00,WeatherDisplay:10.37,2013-06-25 06:10:00,
2013-06-25 02:20:00,69.8,30.3,29.06,SSW,198,0.0,5.0,23,0.00,CLR,,0.00,WeatherDisplay:10.37,2013-06-25 06:20:00,
2013-06-25 02:25:00,70.1,30.6,29.03,SSW,197,0.0,4.0,23,0.00,CLR,,0.00,WeatherDisplay:10.37,2013-06-25 06:25:00,
2013-06-25 02:30:00,70.2,30.6,29.03,SSE,165,0.0,0.0,23,0.00,CLR,,0.00,WeatherDisplay:10.37,2013-06-25 06:30:00,
2013-06-25 02:40:00,70.3,30.8,29.03,SSW,197,0.0,3.0,23,0.00,CLR,,0.00,WeatherDisplay:10.37,2013-06-25 06:40:00,
2013-06-25 02:45:00,70.5,30.9,29.03,South,184,0.0,2.0,23,0.00,CLR,,0.00,WeatherDisplay:10.37,2013-06-25 06:45:00,
2013-06-25 02:50:00,70.5,30.9,29.03,SSW,198,0.0,4.0,23,0.00,CLR,,0.00,WeatherDisplay:10.37,2013-06-25 06:50:00,
2013-06-25 02:55:00,70.5,30.9,29.03,SSW,196,0.0,5.0,23,0.00,CLR,,0.00,WeatherDisplay:10.37,2013-06-25 06:55:00,
2013-06-25 03:00:00,70.7,32.1,29.03,South,187,0.0,2.0,24,0.00,CLR,,0.00,WeatherDisplay:10.37,2013-06-25 07:00:00,
2013-06-25 03:05:00,70.7,32.1,29.03,SW,218,0.0,0.0,24,0.00,CLR,,0.00,WeatherDisplay:10.37,2013-06-25 07:05:00,
2013-06-25 03:10:00,70.7,32.1,29.03,SW,221,0.0,2.0,24,0.00,CLR,,0.00,WeatherDisplay:10.37,2013-06-25 07:10:00,
2013-06-25 03:15:00,70.7,32.1,29.03,SSW,211,0.0,4.0,24,0.00,CLR,,0.00,WeatherDisplay:10.37,2013-06-25 07:15:00,
2013-06-25 03:20:00,70.7,32.1,29.03,SSW,208,0.0,0.0,24,0.00,CLR,,0.00,WeatherDisplay:10.37,2013-06-25 07:20:00,
2013-06-25 03:25:00,70.7,32.1,29.03,South,179,0.0,0.0,24,0.00,CLR,,0.00,WeatherDisplay:10.37,2013-06-25 07:25:00,
2013-06-25 03:35:00,70.5,33.0,29.03,SW,223,0.0,2.0,25,0.00,CLR,,0.00,WeatherDisplay:10.37,2013-06-25 07:35:00,
2013-06-25 03:40:00,70.5,33.0,29.03,SW,219,0.0,0.0,25,0.00,CLR,,0.00,WeatherDisplay:10.37,2013-06-25 07:40:00,
2013-06-25 03:45:00,70.5,33.0,29.03,SW,236,0.0,3.0,25,0.00,CLR,,0.00,WeatherDisplay:10.37,2013-06-25 07:45:00,
2013-06-25 03:50:00,70.5,33.0,29.03,WSW,237,0.0,0.0,25,0.00,CLR,,0.00,WeatherDisplay:10.37,2013-06-25 07:50:00,
2013-06-25 03:55:00,70.5,33.0,29.03,SW,229,0.0,3.0,25,0.00,CLR,,0.00,WeatherDisplay:10.37,2013-06-25 07:55:00,
2013-06-25 04:00:00,70.5,33.0,29.03,WSW,240,0.0,6.0,25,0.00,CLR,,0.00,WeatherDisplay:10.37,2013-06-25 08:00:00,
2013-06-25 04:05:00,70.5,33.0,29.03,SW,235,0.0,4.0,25,0.00,CLR,,0.00,WeatherDisplay:10.37,2013-06-25 08:05:00,
2013-06-25 04:10:00,70.5,33.0,29.03,WSW,237,0.0,3.0,25,0.00,CLR,,0.00,WeatherDisplay:10.37,2013-06-25 08:10:00,
2013-06-25 04:15:00,70.5,33.0,29.03,WSW,248,0.0,3.0,25,0.00,CLR,,0.00,WeatherDisplay:10.37,2013-06-25 08:15:00,
2013-06-25 04:20:00,70.5,34.0,29.03,West,281,0.0,2.0,26,0.00,CLR,,0.00,WeatherDisplay:10.37,2013-06-25 08:20:00,
2013-06-25 04:25:00,70.5,34.0,29.03,WSW,255,1.0,4.0,26,0.00,CLR,,0.00,WeatherDisplay:10.37,2013-06-25 08:25:00,
2013-06-25 04:30:00,70.5,34.0,29.03,SW,225,0.0,3.0,26,0.00,CLR,,0.00,WeatherDisplay:10.37,2013-06-25 08:30:00,
2013-06-25 04:35:00,70.3,33.8,29.03,WSW,240,1.0,4.0,26,0.00,CLR,,0.00,WeatherDisplay:10.37,2013-06-25 08:35:00,
2013-06-25 04:40:00,70.3,33.8,29.03,SW,235,0.0,5.0,26,0.00,CLR,,0.00,WeatherDisplay:10.37,2013-06-25 08:40:00,
2013-06-25 04:45:00,70.3,33.8,29.03,SSW,193,0.0,4.0,26,0.00,CLR,,0.00,WeatherDisplay:10.37,2013-06-25 08:45:00,
2013-06-25 04:50:00,70.3,33.8,29.03,SSW,194,0.0,3.0,26,0.00,CLR,,0.00,WeatherDisplay:10.37,2013-06-25 08:50:00,
2013-06-25 04:55:00,70.2,33.7,29.03,SW,218,0.0,4.0,26,0.00,CLR,,0.00,WeatherDisplay:10.37,2013-06-25 08:55:00,
2013-06-25 05:00:00,70.2,33.7,29.03,SW,228,0.0,3.0,26,0.00,CLR,,0.00,WeatherDisplay:10.37,2013-06-25 09:00:00,
2013-06-25 05:05:00,70.1,34.5,29.03,SW,233,0.0,5.0,27,0.00,CLR,,0.00,WeatherDisplay:10.37,2013-06-25 09:05:00,
2013-06-25 05:10:00,70.0,34.4,29.03,WSW,247,0.0,6.0,27,0.00,CLR,,0.00,WeatherDisplay:10.37,2013-06-25 09:10:00,
2013-06-25 05:15:00,70.0,34.4,29.03,WSW,242,0.0,3.0,27,0.00,CLR,,0.00,WeatherDisplay:10.37,2013-06-25 09:15:00,
2013-06-25 05:20:00,70.0,34.4,29.03,WSW,238,1.0,6.0,27,0.00,CLR,,0.00,WeatherDisplay:10.37,2013-06-25 09:20:00,
2013-06-25 05:25:00,69.8,34.3,29.03,WSW,242,0.0,6.0,27,0.00,CLR,,0.00,WeatherDisplay:10.37,2013-06-25 09:25:00,
2013-06-25 05:30:00,69.8,34.3,29.03,SW,229,0.0,6.0,27,0.00,CLR,,0.00,WeatherDisplay:10.37,2013-06-25 09:30:00,
2013-06-25 05:35:00,69.8,34.3,29.03,SW,228,0.0,4.0,27,0.00,CLR,,0.00,WeatherDisplay:10.37,2013-06-25 09:35:00,
2013-06-25 05:40:00,69.6,35.0,29.03,SW,225,0.0,4.0,28,0.00,CLR,,0.00,WeatherDisplay:10.37,2013-06-25 09:40:00,
2013-06-25 05:45:00,69.6,35.0,29.03,SW,223,0.0,4.0,28,0.00,CLR,,0.00,WeatherDisplay:10.37,2013-06-25 09:45:00,
2013-06-25 05:50:00,69.6,35.0,29.03,SW,224,0.0,6.0,28,0.00,CLR,,0.00,WeatherDisplay:10.37,2013-06-25 09:50:00,
2013-06-25 05:55:00,69.6,35.0,29.03,SSW,207,0.0,4.0,28,0.00,CLR,,0.00,WeatherDisplay:10.37,2013-06-25 09:55:00,
2013-06-25 06:00:00,69.6,35.0,29.03,SSW,211,0.0,5.0,28,0.00,CLR,,0.00,WeatherDisplay:10.37,2013-06-25 10:00:00,
2013-06-25 06:05:00,69.6,35.0,29.03,SW,234,2.0,5.0,28,0.00,CLR,,0.00,WeatherDisplay:10.37,2013-06-25 10:05:00,
2013-06-25 06:10:00,69.4,34.9,29.03,WSW,240,0.0,3.0,28,0.00,CLR,,0.00,WeatherDisplay:10.37,2013-06-25 10:10:00,
2013-06-25 06:15:00,69.4,34.9,29.03,WSW,239,0.0,6.0,28,0.00,CLR,,0.00,WeatherDisplay:10.37,2013-06-25 10:15:00,
2013-06-25 06:20:00,69.4,34.9,29.03,SW,221,0.0,4.0,28,0.00,CLR,,0.00,WeatherDisplay:10.37,2013-06-25 10:20:00,
2013-06-25 06:25:00,69.4,34.9,29.03,SSW,213,0.0,3.0,28,0.00,CLR,,0.00,WeatherDisplay:10.37,2013-06-25 10:25:00,
2013-06-25 06:30:00,69.4,34.9,29.03,SW,230,1.0,5.0,28,0.00,CLR,,0.00,WeatherDisplay:10.37,2013-06-25 10:30:00,
2013-06-25 06:35:00,69.4,34.9,29.03,SW,231,0.0,5.0,28,0.00,CLR,,0.00,WeatherDisplay:10.37,2013-06-25 10:35:00,
2013-06-25 06:40:00,69.6,35.0,29.03,SW,220,0.0,4.0,28,0.00,CLR,,0.00,WeatherDisplay:10.37,2013-06-25 10:40:00,
2013-06-25 06:45:00,69.8,34.3,29.03,SSW,211,0.0,4.0,27,0.00,CLR,,0.00,WeatherDisplay:10.37,2013-06-25 10:45:00,
2013-06-25 06:50:00,70.0,34.4,29.03,SSW,202,0.0,5.0,27,0.00,CLR,,0.00,WeatherDisplay:10.37,2013-06-25 10:50:00,
2013-06-25 06:55:00,70.3,34.7,29.03,South,181,0.0,3.0,27,0.00,CLR,,0.00,WeatherDisplay:10.37,2013-06-25 10:55:00,
2013-06-25 07:00:00,70.9,35.2,29.03,SSW,203,0.0,4.0,27,0.00,CLR,,0.00,WeatherDisplay:10.37,2013-06-25 11:00:00,
2013-06-25 07:05:00,71.8,35.1,29.03,SW,225,0.0,4.0,26,0.00,CLR,,0.00,WeatherDisplay:10.37,2013-06-25 11:05:00,
2013-06-25 07:10:00,72.8,35.9,29.03,SW,215,0.0,6.0,26,0.00,CLR,,0.00,WeatherDisplay:10.37,2013-06-25 11:10:00,
2013-06-25 07:15:00,73.8,35.7,29.03,SSW,204,0.0,4.0,25,0.00,CLR,,0.00,WeatherDisplay:10.37,2013-06-25 11:15:00,
2013-06-25 07:20:00,74.5,35.3,29.03,SW,216,1.0,4.0,24,0.00,CLR,,0.00,WeatherDisplay:10.37,2013-06-25 11:20:00,
2013-06-25 07:25:00,74.7,34.5,29.03,SW,226,3.0,8.0,23,0.00,CLR,,0.00,WeatherDisplay:10.37,2013-06-25 11:25:00,
2013-06-25 07:30:00,75.5,34.0,29.03,SW,226,2.0,6.0,22,0.00,CLR,,0.00,WeatherDisplay:10.37,2013-06-25 11:30:00,
2013-06-25 07:35:00,76.3,34.6,29.03,SW,219,2.0,6.0,22,0.00,CLR,,0.00,WeatherDisplay:10.37,2013-06-25 11:35:00,
2013-06-25 07:40:00,77.0,34.0,29.03,SSW,201,1.0,6.0,21,0.00,CLR,,0.00,WeatherDisplay:10.37,2013-06-25 11:40:00,
2013-06-25 07:50:00,77.5,33.3,29.03,SW,224,0.0,6.0,20,0.00,CLR,,0.00,WeatherDisplay:10.37,2013-06-25 11:50:00,
2013-06-25 07:55:00,77.5,33.3,29.03,SW,226,2.0,8.0,20,0.00,CLR,,0.00,WeatherDisplay:10.37,2013-06-25 11:55:00,
2013-06-25 08:00:00,77.7,33.4,29.03,WSW,242,2.0,5.0,20,0.00,CLR,,0.00,WeatherDisplay:10.37,2013-06-25 12:00:00,
2013-06-25 08:05:00,77.7,30.8,29.03,WSW,246,5.0,7.0,18,0.00,CLR,,0.00,WeatherDisplay:10.37,2013-06-25 12:05:00,
2013-06-25 08:10:00,77.5,30.7,29.03,WSW,256,3.0,6.0,18,0.00,CLR,,0.00,WeatherDisplay:10.37,2013-06-25 12:10:00,
2013-06-25 08:15:00,77.5,30.7,29.03,WSW,252,5.0,8.0,18,0.00,CLR,,0.00,WeatherDisplay:10.37,2013-06-25 12:15:00,
2013-06-25 08:20:00,77.7,30.8,29.03,SW,231,5.0,8.0,18,0.00,CLR,,0.00,WeatherDisplay:10.37,2013-06-25 12:20:00,
2013-06-25 08:25:00,78.1,31.1,29.03,SW,225,5.0,7.0,18,0.00,CLR,,0.00,WeatherDisplay:10.37,2013-06-25 12:25:00,
2013-06-25 08:30:00,78.4,31.4,29.03,SW,231,3.0,8.0,18,0.00,CLR,,0.00,WeatherDisplay:10.37,2013-06-25 12:30:00,
2013-06-25 08:35:00,78.8,28.8,29.03,SW,234,5.0,8.0,16,0.00,CLR,,0.00,WeatherDisplay:10.37,2013-06-25 12:35:00,
2013-06-25 08:40:00,79.2,27.5,29.03,SW,218,3.0,8.0,15,0.00,CLR,,0.00,WeatherDisplay:10.37,2013-06-25 12:40:00,
2013-06-25 08:45:00,79.5,27.8,29.03,SW,231,5.0,8.0,15,0.00,CLR,,0.00,WeatherDisplay:10.37,2013-06-25 12:45:00,
2013-06-25 08:50:00,80.3,28.4,29.03,WSW,243,3.0,8.0,15,0.00,CLR,,0.00,WeatherDisplay:10.37,2013-06-25 12:50:00,
2013-06-25 08:55:00,81.0,27.3,29.03,SW,236,3.0,8.0,14,0.00,CLR,,0.00,WeatherDisplay:10.37,2013-06-25 12:55:00,
2013-06-25 09:00:00,81.7,27.8,29.03,WSW,248,6.0,10.0,14,0.00,CLR,,0.00,WeatherDisplay:10.37,2013-06-25 13:00:00,
2013-06-25 09:05:00,82.4,28.4,29.03,WSW,244,3.0,8.0,14,0.00,CLR,,0.00,WeatherDisplay:10.37,2013-06-25 13:05:00,
2013-06-25 09:10:00,82.2,28.3,29.03,SW,232,3.0,9.0,14,0.00,CLR,,0.00,WeatherDisplay:10.37,2013-06-25 13:10:00,
2013-06-25 09:15:00,82.4,28.4,29.03,SW,230,3.0,6.0,14,0.00,CLR,,0.00,WeatherDisplay:10.37,2013-06-25 13:15:00,
2013-06-25 09:25:00,82.0,28.1,29.03,SW,219,3.0,6.0,14,0.00,CLR,,0.00,WeatherDisplay:10.37,2013-06-25 13:25:00,
2013-06-25 09:30:00,82.0,28.1,29.03,SW,215,3.0,5.0,14,0.00,CLR,,0.00,WeatherDisplay:10.37,2013-06-25 13:30:00,
2013-06-25 09:35:00,82.0,28.1,29.03,SW,223,5.0,10.0,14,0.00,CLR,,0.00,WeatherDisplay:10.37,2013-06-25 13:35:00,
2013-06-25 09:40:00,81.9,28.0,29.03,SW,226,3.0,7.0,14,0.00,CLR,,0.00,WeatherDisplay:10.37,2013-06-25 13:40:00,
2013-06-25 09:45:00,81.9,28.0,29.03,WSW,237,5.0,8.0,14,0.00,CLR,,0.00,WeatherDisplay:10.37,2013-06-25 13:45:00,
2013-06-25 09:55:00,81.3,27.5,29.03,WSW,237,6.0,11.0,14,0.00,CLR,,0.00,WeatherDisplay:10.37,2013-06-25 13:55:00,
2013-06-25 10:00:00,81.7,27.8,29.03,SW,226,5.0,8.0,14,0.00,CLR,,0.00,WeatherDisplay:10.37,2013-06-25 14:00:00,
2013-06-25 10:05:00,82.8,28.7,29.03,SW,235,3.0,8.0,14,0.00,CLR,,0.00,WeatherDisplay:10.37,2013-06-25 14:05:00,
2013-06-25 10:10:00,84.0,29.6,29.03,WSW,242,5.0,10.0,14,0.00,CLR,,0.00,WeatherDisplay:10.37,2013-06-25 14:10:00,
2013-06-25 10:15:00,83.2,29.0,29.03,SW,234,1.0,6.0,14,0.00,CLR,,0.00,WeatherDisplay:10.37,2013-06-25 14:15:00,
2013-06-25 10:20:00,83.2,29.0,29.03,SW,222,1.0,6.0,14,0.00,CLR,,0.00,WeatherDisplay:10.37,2013-06-25 14:20:00,
2013-06-25 10:25:00,84.4,28.1,29.00,SW,232,3.0,6.0,13,0.00,CLR,,0.00,WeatherDisplay:10.37,2013-06-25 14:25:00,
2013-06-25 10:30:00,85.4,28.9,29.00,WSW,252,2.0,6.0,13,0.00,CLR,,0.00,WeatherDisplay:10.37,2013-06-25 14:30:00,
2013-06-25 10:35:00,86.4,29.7,29.00,WSW,244,2.0,7.0,13,0.00,CLR,,0.00,WeatherDisplay:10.37,2013-06-25 14:35:00,
2013-06-25 10:40:00,87.1,30.3,29.03,SW,232,3.0,6.0,13,0.00,CLR,,0.00,WeatherDisplay:10.37,2013-06-25 14:40:00,
2013-06-25 10:45:00,87.4,30.5,29.03,SW,236,3.0,6.0,13,0.00,CLR,,0.00,WeatherDisplay:10.37,2013-06-25 14:45:00,
2013-06-25 10:50:00,87.6,30.7,29.03,WSW,247,5.0,8.0,13,0.00,CLR,,0.00,WeatherDisplay:10.37,2013-06-25 14:50:00,
2013-06-25 10:55:00,87.1,30.3,29.03,WSW,254,5.0,8.0,13,0.00,CLR,,0.00,WeatherDisplay:10.37,2013-06-25 14:55:00,
2013-06-25 11:00:00,87.2,30.4,29.03,WSW,256,5.0,6.0,13,0.00,CLR,,0.00,WeatherDisplay:10.37,2013-06-25 15:00:00,
2013-06-25 11:05:00,86.9,30.1,29.03,WSW,255,6.0,8.0,13,0.00,CLR,,0.00,WeatherDisplay:10.37,2013-06-25 15:05:00,
2013-06-25 11:10:00,86.4,29.8,29.03,WSW,250,7.0,10.0,13,0.00,CLR,,0.00,WeatherDisplay:10.37,2013-06-25 15:10:00,
2013-06-25 11:20:00,85.8,29.3,29.03,WSW,248,7.0,12.0,13,0.00,CLR,,0.00,WeatherDisplay:10.37,2013-06-25 15:20:00,
2013-06-25 11:25:00,86.2,29.5,29.03,WSW,247,7.0,13.0,13,0.00,CLR,,0.00,WeatherDisplay:10.37,2013-06-25 15:25:00,
2013-06-25 11:30:00,86.9,30.1,29.03,WSW,252,10.0,13.0,13,0.00,CLR,,0.00,WeatherDisplay:10.37,2013-06-25 15:30:00,
2013-06-25 11:40:00,87.8,30.8,29.03,WSW,254,8.0,13.0,13,0.00,CLR,,0.00,WeatherDisplay:10.37,2013-06-25 15:40:00,
2013-06-25 11:45:00,88.5,31.4,29.03,West,259,6.0,13.0,13,0.00,CLR,,0.00,WeatherDisplay:10.37,2013-06-25 15:45:00,
2013-06-25 11:50:00,89.0,31.7,29.03,West,271,8.0,14.0,13,0.00,CLR,,0.00,WeatherDisplay:10.37,2013-06-25 15:50:00,
2013-06-25 11:55:00,89.8,30.4,29.03,West,261,5.0,13.0,12,0.00,CLR,,0.00,WeatherDisplay:10.37,2013-06-25 15:55:00,
2013-06-25 12:00:00,89.9,30.5,29.03,WSW,252,9.0,13.0,12,0.00,CLR,,0.00,WeatherDisplay:10.37,2013-06-25 16:00:00,
2013-06-25 12:05:00,89.2,31.9,29.03,West,261,8.0,13.0,13,0.00,CLR,,0.00,WeatherDisplay:10.37,2013-06-25 16:05:00,
2013-06-25 12:10:00,88.5,31.4,29.03,WSW,254,9.0,15.0,13,0.00,CLR,,0.00,WeatherDisplay:10.37,2013-06-25 16:10:00,
2013-06-25 12:15:00,87.6,30.7,29.03,WSW,251,7.0,12.0,13,0.00,CLR,,0.00,WeatherDisplay:10.37,2013-06-25 16:15:00,
2013-06-25 12:20:00,87.1,30.3,29.03,West,266,5.0,9.0,13,0.00,CLR,,0.00,WeatherDisplay:10.37,2013-06-25 16:20:00,
2013-06-25 12:25:00,87.4,30.5,29.03,West,266,7.0,10.0,13,0.00,CLR,,0.00,WeatherDisplay:10.37,2013-06-25 16:25:00,
2013-06-25 12:30:00,88.0,31.0,29.03,WSW,248,8.0,12.0,13,0.00,CLR,,0.00,WeatherDisplay:10.37,2013-06-25 16:30:00,
2013-06-25 12:35:00,88.7,31.5,29.03,WSW,247,5.0,12.0,13,0.00,CLR,,0.00,WeatherDisplay:10.37,2013-06-25 16:35:00,
2013-06-25 12:40:00,89.1,31.8,29.03,WSW,250,9.0,13.0,13,0.00,CLR,,0.00,WeatherDisplay:10.37,2013-06-25 16:40:00,
2013-06-25 12:45:00,89.0,31.8,29.03,WSW,255,7.0,12.0,13,0.00,CLR,,0.00,WeatherDisplay:10.37,2013-06-25 16:45:00,
2013-06-25 12:50:00,88.8,31.6,29.03,West,265,9.0,15.0,13,0.00,CLR,,0.00,WeatherDisplay:10.37,2013-06-25 16:50:00,
2013-06-25 12:55:00,88.9,31.7,29.03,West,262,9.0,15.0,13,0.00,CLR,,0.00,WeatherDisplay:10.37,2013-06-25 16:55:00,
2013-06-25 13:00:00,89.2,31.9,29.03,West,271,6.0,12.0,13,0.00,CLR,,0.00,WeatherDisplay:10.37,2013-06-25 17:00:00,
2013-06-25 13:05:00,89.1,31.8,29.03,West,264,10.0,13.0,13,0.00,CLR,,0.00,WeatherDisplay:10.37,2013-06-25 17:05:00,
2013-06-25 13:10:00,88.9,31.7,29.03,West,267,8.0,13.0,13,0.00,CLR,,0.00,WeatherDisplay:10.37,2013-06-25 17:10:00,
2013-06-25 13:20:00,89.0,31.8,29.03,West,267,8.0,13.0,13,0.00,CLR,,0.00,WeatherDisplay:10.37,2013-06-25 17:20:00,
2013-06-25 13:25:00,89.3,32.0,29.00,West,277,8.0,15.0,13,0.00,CLR,,0.00,WeatherDisplay:10.37,2013-06-25 17:25:00,
2013-06-25 13:30:00,89.2,31.9,29.00,West,264,9.0,15.0,13,0.00,CLR,,0.00,WeatherDisplay:10.37,2013-06-25 17:30:00,
2013-06-25 13:35:00,88.8,31.6,29.00,WSW,256,8.0,12.0,13,0.00,CLR,,0.00,WeatherDisplay:10.37,2013-06-25 17:35:00,
2013-06-25 13:40:00,89.0,31.7,29.00,West,266,8.0,13.0,13,0.00,CLR,,0.00,WeatherDisplay:10.37,2013-06-25 17:40:00,
2013-06-25 13:45:00,88.6,31.5,29.00,West,274,8.0,13.0,13,0.00,CLR,,0.00,WeatherDisplay:10.37,2013-06-25 17:45:00,
2013-06-25 13:50:00,88.7,31.5,29.00,West,265,7.0,10.0,13,0.00,CLR,,0.00,WeatherDisplay:10.37,2013-06-25 17:50:00,
2013-06-25 13:55:00,89.1,31.8,29.00,West,261,6.0,13.0,13,0.00,CLR,,0.00,WeatherDisplay:10.37,2013-06-25 17:55:00,
2013-06-25 14:05:00,88.9,31.7,29.00,West,271,7.0,12.0,13,0.00,CLR,,0.00,WeatherDisplay:10.37,2013-06-25 18:05:00,
2013-06-25 14:10:00,88.7,31.5,29.00,West,280,7.0,10.0,13,0.00,CLR,,0.00,WeatherDisplay:10.37,2013-06-25 18:10:00,
2013-06-25 14:15:00,89.0,31.7,29.00,West,279,6.0,8.0,13,0.00,CLR,,0.00,WeatherDisplay:10.37,2013-06-25 18:15:00,
2013-06-25 14:20:00,89.6,30.2,29.00,WSW,255,6.0,8.0,12,0.00,CLR,,0.00,WeatherDisplay:10.37,2013-06-25 18:20:00,
2013-06-25 14:30:00,90.8,31.2,29.00,WSW,250,6.0,13.0,12,0.00,CLR,,0.00,WeatherDisplay:10.37,2013-06-25 18:30:00,
2013-06-25 14:35:00,91.2,31.5,29.00,WSW,252,7.0,9.0,12,0.00,CLR,,0.00,WeatherDisplay:10.37,2013-06-25 18:35:00,
2013-06-25 14:40:00,91.3,31.6,29.00,West,263,6.0,12.0,12,0.00,CLR,,0.00,WeatherDisplay:10.37,2013-06-25 18:40:00,
2013-06-25 14:45:00,90.4,30.8,29.00,West,274,7.0,12.0,12,0.00,CLR,,0.00,WeatherDisplay:10.37,2013-06-25 18:45:00,
2013-06-25 14:50:00,89.2,32.0,29.00,West,260,7.0,11.0,13,0.00,CLR,,0.00,WeatherDisplay:10.37,2013-06-25 18:50:00,
2013-06-25 14:55:00,89.6,30.2,29.00,WSW,252,8.0,11.0,12,0.00,CLR,,0.00,WeatherDisplay:10.37,2013-06-25 18:55:00,
2013-06-25 15:00:00,90.3,30.8,29.00,WSW,256,7.0,11.0,12,0.00,CLR,,0.00,WeatherDisplay:10.37,2013-06-25 19:00:00,
2013-06-25 15:05:00,90.4,30.9,29.00,West,265,5.0,9.0,12,0.00,CLR,,0.00,WeatherDisplay:10.37,2013-06-25 19:05:00,
2013-06-25 15:10:00,90.3,30.8,28.97,West,266,8.0,13.0,12,0.00,CLR,,0.00,WeatherDisplay:10.37,2013-06-25 19:10:00,
2013-06-25 15:15:00,90.7,31.1,28.97,WSW,248,8.0,11.0,12,0.00,CLR,,0.00,WeatherDisplay:10.37,2013-06-25 19:15:00,
2013-06-25 15:20:00,90.9,31.2,28.97,WSW,249,8.0,12.0,12,0.00,CLR,,0.00,WeatherDisplay:10.37,2013-06-25 19:20:00,
2013-06-25 15:30:00,90.9,31.2,28.97,WSW,253,8.0,11.0,12,0.00,CLR,,0.00,WeatherDisplay:10.37,2013-06-25 19:30:00,
2013-06-25 15:40:00,90.5,30.9,28.97,WSW,253,7.0,8.0,12,0.00,CLR,,0.00,WeatherDisplay:10.37,2013-06-25 19:40:00,
2013-06-25 15:45:00,91.1,31.4,28.97,WSW,253,7.0,13.0,12,0.00,CLR,,0.00,WeatherDisplay:10.37,2013-06-25 19:45:00,
2013-06-25 15:50:00,91.4,31.6,28.97,WSW,241,8.0,15.0,12,0.00,CLR,,0.00,WeatherDisplay:10.37,2013-06-25 19:50:00,
2013-06-25 15:55:00,91.5,31.7,28.97,SW,235,8.0,13.0,12,0.00,CLR,,0.00,WeatherDisplay:10.37,2013-06-25 19:55:00,
2013-06-25 16:00:00,91.5,31.7,28.97,WSW,245,9.0,13.0,12,0.00,CLR,,0.00,WeatherDisplay:10.37,2013-06-25 20:00:00,
2013-06-25 16:05:00,91.5,31.7,28.97,WSW,251,5.0,13.0,12,0.00,CLR,,0.00,WeatherDisplay:10.37,2013-06-25 20:05:00,
2013-06-25 16:10:00,91.8,31.9,28.97,WSW,248,7.0,11.0,12,0.00,CLR,,0.00,WeatherDisplay:10.37,2013-06-25 20:10:00,
2013-06-25 16:15:00,91.4,31.6,28.97,WSW,238,7.0,13.0,12,0.00,CLR,,0.00,WeatherDisplay:10.37,2013-06-25 20:15:00,
2013-06-25 16:20:00,91.4,31.6,28.97,WSW,244,8.0,13.0,12,0.00,CLR,,0.00,WeatherDisplay:10.37,2013-06-25 20:20:00,
2013-06-25 16:25:00,91.2,31.5,28.97,WSW,243,6.0,14.0,12,0.00,CLR,,0.00,WeatherDisplay:10.37,2013-06-25 20:25:00,
2013-06-25 16:30:00,91.6,31.8,28.97,SW,235,7.0,11.0,12,0.00,CLR,,0.00,WeatherDisplay:10.37,2013-06-25 20:30:00,
2013-06-25 16:35:00,92.0,32.1,28.97,SW,229,6.0,12.0,12,0.00,CLR,,0.00,WeatherDisplay:10.37,2013-06-25 20:35:00,
2013-06-25 16:40:00,92.5,32.5,28.94,WSW,241,5.0,8.0,12,0.00,CLR,,0.00,WeatherDisplay:10.37,2013-06-25 20:40:00,
2013-06-25 16:45:00,92.3,32.3,28.94,WSW,248,6.0,12.0,12,0.00,CLR,,0.00,WeatherDisplay:10.37,2013-06-25 20:45:00,
2013-06-25 16:50:00,92.3,32.3,28.94,WSW,246,8.0,12.0,12,0.00,CLR,,0.00,WeatherDisplay:10.37,2013-06-25 20:50:00,
2013-06-25 16:55:00,92.1,32.2,28.94,WSW,243,8.0,13.0,12,0.00,CLR,,0.00,WeatherDisplay:10.37,2013-06-25 20:55:00,
2013-06-25 17:00:00,91.8,31.9,28.94,WSW,247,6.0,9.0,12,0.00,CLR,,0.00,WeatherDisplay:10.37,2013-06-25 21:00:00,
2013-06-25 17:05:00,92.2,32.3,28.94,WSW,252,6.0,11.0,12,0.00,CLR,,0.00,WeatherDisplay:10.37,2013-06-25 21:05:00,
2013-06-25 17:10:00,92.1,32.2,28.94,WSW,253,7.0,10.0,12,0.00,CLR,,0.00,WeatherDisplay:10.37,2013-06-25 21:10:00,
2013-06-25 17:15:00,91.6,31.8,28.94,WSW,247,6.0,12.0,12,0.00,CLR,,0.00,WeatherDisplay:10.37,2013-06-25 21:15:00,
2013-06-25 17:20:00,91.6,31.8,28.94,WSW,244,6.0,10.0,12,0.00,CLR,,0.00,WeatherDisplay:10.37,2013-06-25 21:20:00,
2013-06-25 17:25:00,91.8,31.9,28.91,WSW,247,5.0,12.0,12,0.00,CLR,,0.00,WeatherDisplay:10.37,2013-06-25 21:25:00,
2013-06-25 17:30:00,91.9,32.1,28.91,WSW,250,8.0,13.0,12,0.00,CLR,,0.00,WeatherDisplay:10.37,2013-06-25 21:30:00,
2013-06-25 17:35:00,91.7,31.9,28.91,WSW,244,6.0,12.0,12,0.00,CLR,,0.00,WeatherDisplay:10.37,2013-06-25 21:35:00,
2013-06-25 17:40:00,91.4,31.6,28.93,WSW,248,6.0,11.0,12,0.00,CLR,,0.00,WeatherDisplay:10.37,2013-06-25 21:40:00,
2013-06-25 17:45:00,91.2,31.5,28.94,WSW,250,6.0,12.0,12,0.00,CLR,,0.00,WeatherDisplay:10.37,2013-06-25 21:45:00,
2013-06-25 17:50:00,91.2,31.5,28.94,WSW,238,7.0,13.0,12,0.00,CLR,,0.00,WeatherDisplay:10.37,2013-06-25 21:50:00,
2013-06-25 17:55:00,91.4,31.6,28.94,WSW,238,7.0,10.0,12,0.00,CLR,,0.00,WeatherDisplay:10.37,2013-06-25 21:55:00,
2013-06-25 18:00:00,90.6,31.0,28.94,WSW,240,7.0,11.0,12,0.00,CLR,,0.00,WeatherDisplay:10.37,2013-06-25 22:00:00,
2013-06-25 18:05:00,89.8,30.4,28.94,WSW,245,8.0,11.0,12,0.00,CLR,,0.00,WeatherDisplay:10.37,2013-06-25 22:05:00,
2013-06-25 18:10:00,89.6,30.2,28.91,WSW,240,6.0,12.0,12,0.00,CLR,,0.00,WeatherDisplay:10.37,2013-06-25 22:10:00,
2013-06-25 18:20:00,90.7,31.1,28.91,SW,236,3.0,8.0,12,0.00,CLR,,0.00,WeatherDisplay:10.37,2013-06-25 22:20:00,
2013-06-25 18:25:00,90.7,31.1,28.91,WSW,238,6.0,11.0,12,0.00,CLR,,0.00,WeatherDisplay:10.37,2013-06-25 22:25:00,
2013-06-25 18:30:00,90.7,31.1,28.91,SW,235,6.0,12.0,12,0.00,CLR,,0.00,WeatherDisplay:10.37,2013-06-25 22:30:00,
2013-06-25 18:35:00,90.3,30.8,28.91,WSW,241,7.0,9.0,12,0.00,CLR,,0.00,WeatherDisplay:10.37,2013-06-25 22:35:00,
2013-06-25 18:40:00,90.1,30.7,28.91,SW,234,6.0,13.0,12,0.00,CLR,,0.00,WeatherDisplay:10.37,2013-06-25 22:40:00,
2013-06-25 18:45:00,90.0,30.5,28.91,WSW,240,6.0,9.0,12,0.00,CLR,,0.00,WeatherDisplay:10.37,2013-06-25 22:45:00,
2013-06-25 18:50:00,89.3,32.0,28.91,WSW,256,7.0,9.0,13,0.00,CLR,,0.00,WeatherDisplay:10.37,2013-06-25 22:50:00,
2013-06-25 18:55:00,88.9,31.7,28.91,WSW,253,6.0,11.0,13,0.00,CLR,,0.00,WeatherDisplay:10.37,2013-06-25 22:55:00,
2013-06-25 19:00:00,88.7,31.5,28.91,WSW,245,6.0,10.0,13,0.00,CLR,,0.00,WeatherDisplay:10.37,2013-06-25 23:00:00,
2013-06-25 19:05:00,88.7,31.5,28.91,WSW,247,5.0,8.0,13,0.00,CLR,,0.00,WeatherDisplay:10.37,2013-06-25 23:05:00,
2013-06-25 19:10:00,89.1,31.8,28.91,WSW,254,6.0,9.0,13,0.00,CLR,,0.00,WeatherDisplay:10.37,2013-06-25 23:10:00,
2013-06-25 19:15:00,89.2,31.9,28.91,WSW,244,6.0,8.0,13,0.00,CLR,,0.00,WeatherDisplay:10.37,2013-06-25 23:15:00,
2013-06-25 19:20:00,88.7,31.6,28.91,WSW,245,6.0,8.0,13,0.00,CLR,,0.00,WeatherDisplay:10.37,2013-06-25 23:20:00,
2013-06-25 19:30:00,87.1,30.3,28.91,WSW,244,6.0,10.0,13,0.00,CLR,,0.00,WeatherDisplay:10.37,2013-06-25 23:30:00,
2013-06-25 19:35:00,86.5,29.8,28.91,WSW,244,5.0,8.0,13,0.00,CLR,,0.00,WeatherDisplay:10.37,2013-06-25 23:35:00,
2013-06-25 19:40:00,86.0,29.4,28.91,WSW,247,3.0,6.0,13,0.00,CLR,,0.00,WeatherDisplay:10.37,2013-06-25 23:40:00,
2013-06-25 19:45:00,85.6,29.1,28.91,WSW,247,5.0,7.0,13,0.00,CLR,,0.00,WeatherDisplay:10.37,2013-06-25 23:45:00,
2013-06-25 19:50:00,85.1,28.7,28.91,WSW,250,6.0,10.0,13,0.00,CLR,,0.00,WeatherDisplay:10.37,2013-06-25 23:50:00,
2013-06-25 19:55:00,84.6,28.3,28.91,WSW,251,5.0,10.0,13,0.00,CLR,,0.00,WeatherDisplay:10.37,2013-06-25 23:55:00,
2013-06-25 20:00:00,84.3,28.1,28.91,WSW,244,5.0,8.0,13,0.00,CLR,,0.00,WeatherDisplay:10.37,2013-06-26 00:00:00,
2013-06-25 20:05:00,84.0,29.7,28.91,WSW,250,3.0,8.0,14,0.00,CLR,,0.00,WeatherDisplay:10.37,2013-06-26 00:05:00,
2013-06-25 20:10:00,83.8,29.5,28.91,WSW,253,3.0,6.0,14,0.00,CLR,,0.00,WeatherDisplay:10.37,2013-06-26 00:10:00,
2013-06-25 20:15:00,83.6,29.4,28.91,WSW,249,3.0,6.0,14,0.00,CLR,,0.00,WeatherDisplay:10.37,2013-06-26 00:15:00,
2013-06-25 20:20:00,83.3,29.1,28.91,WSW,245,3.0,7.0,14,0.00,CLR,,0.00,WeatherDisplay:10.37,2013-06-26 00:20:00,
2013-06-25 20:25:00,83.1,29.0,28.91,WSW,251,3.0,6.0,14,0.00,CLR,,0.00,WeatherDisplay:10.37,2013-06-26 00:25:00,
2013-06-25 20:30:00,82.8,28.7,28.91,WSW,253,5.0,6.0,14,0.00,CLR,,0.00,WeatherDisplay:10.37,2013-06-26 00:30:00,
2013-06-25 20:35:00,82.8,28.7,28.91,WSW,251,3.0,8.0,14,0.00,CLR,,0.00,WeatherDisplay:10.37,2013-06-26 00:35:00,
2013-06-25 20:40:00,82.4,28.4,28.91,WSW,252,0.0,7.0,14,0.00,CLR,,0.00,WeatherDisplay:10.37,2013-06-26 00:40:00,
2013-06-25 20:45:00,82.3,28.3,28.91,WSW,253,0.0,6.0,14,0.00,CLR,,0.00,WeatherDisplay:10.37,2013-06-26 00:45:00,
2013-06-25 20:50:00,82.0,28.1,28.91,WSW,246,2.0,6.0,14,0.00,CLR,,0.00,WeatherDisplay:10.37,2013-06-26 00:50:00,
2013-06-25 20:55:00,81.9,28.0,28.91,WSW,250,0.0,6.0,14,0.00,CLR,,0.00,WeatherDisplay:10.37,2013-06-26 00:55:00,
2013-06-25 21:00:00,81.7,27.8,28.91,WSW,249,2.0,6.0,14,0.00,CLR,,0.00,WeatherDisplay:10.37,2013-06-26 01:00:00,
2013-06-25 21:05:00,81.5,27.7,28.91,WSW,254,0.0,3.0,14,0.00,CLR,,0.00,WeatherDisplay:10.37,2013-06-26 01:05:00,
2013-06-25 21:10:00,81.1,27.4,28.91,West,261,0.0,0.0,14,0.00,CLR,,0.00,WeatherDisplay:10.37,2013-06-26 01:10:00,
2013-06-25 21:15:00,81.0,27.3,28.91,West,270,0.0,3.0,14,0.00,CLR,,0.00,WeatherDisplay:10.37,2013-06-26 01:15:00,
2013-06-25 21:20:00,80.8,27.1,28.91,WNW,283,0.0,0.0,14,0.00,CLR,,0.00,WeatherDisplay:10.37,2013-06-26 01:20:00,
2013-06-25 21:30:00,80.2,28.4,28.91,WSW,252,0.0,4.0,15,0.00,CLR,,0.00,WeatherDisplay:10.37,2013-06-26 01:30:00,
2013-06-25 21:35:00,80.1,28.2,28.91,WSW,240,0.0,2.0,15,0.00,CLR,,0.00,WeatherDisplay:10.37,2013-06-26 01:35:00,
2013-06-25 21:40:00,79.9,28.1,28.91,WSW,241,0.0,4.0,15,0.00,CLR,,0.00,WeatherDisplay:10.37,2013-06-26 01:40:00,
2013-06-25 21:45:00,79.9,28.1,28.91,WSW,245,1.0,4.0,15,0.00,CLR,,0.00,WeatherDisplay:10.37,2013-06-26 01:45:00,
2013-06-25 21:50:00,79.9,28.1,28.91,WSW,245,1.0,4.0,15,0.00,CLR,,0.00,WeatherDisplay:10.37,2013-06-26 01:50:00,
2013-06-25 22:00:00,79.9,28.1,28.91,WSW,242,0.0,6.0,15,0.00,CLR,,0.00,WeatherDisplay:10.37,2013-06-26 02:00:00,
2013-06-25 22:05:00,79.9,28.1,28.91,WSW,239,0.0,4.0,15,0.00,CLR,,0.00,WeatherDisplay:10.37,2013-06-26 02:05:00,
2013-06-25 22:10:00,79.9,28.1,28.91,WSW,239,2.0,6.0,15,0.00,CLR,,0.00,WeatherDisplay:10.37,2013-06-26 02:10:00,
2013-06-25 22:15:00,79.7,27.9,28.91,West,260,3.0,3.0,15,0.00,CLR,,0.00,WeatherDisplay:10.37,2013-06-26 02:15:00,
2013-06-25 22:20:00,79.7,27.9,28.91,West,260,2.0,5.0,15,0.00,CLR,,0.00,WeatherDisplay:10.37,2013-06-26 02:20:00,
2013-06-25 22:25:00,79.5,27.8,28.91,WSW,253,0.0,3.0,15,0.00,CLR,,0.00,WeatherDisplay:10.37,2013-06-26 02:25:00,
2013-06-25 22:30:00,79.5,27.8,28.91,WSW,246,0.0,2.0,15,0.00,CLR,,0.00,WeatherDisplay:10.37,2013-06-26 02:30:00,
2013-06-25 22:35:00,79.3,27.6,28.91,WSW,240,0.0,0.0,15,0.00,CLR,,0.00,WeatherDisplay:10.37,2013-06-26 02:35:00,
2013-06-25 22:40:00,79.3,27.6,28.93,WSW,245,0.0,0.0,15,0.00,CLR,,0.00,WeatherDisplay:10.37,2013-06-26 02:40:00,
2013-06-25 22:45:00,79.2,27.6,28.94,WNW,291,3.0,12.0,15,0.00,CLR,,0.00,WeatherDisplay:10.37,2013-06-26 02:45:00,
2013-06-25 22:50:00,79.3,27.6,28.94,WNW,288,8.0,15.0,15,0.00,CLR,,0.00,WeatherDisplay:10.37,2013-06-26 02:50:00,
2013-06-25 22:55:00,78.5,27.0,28.94,WNW,302,10.0,15.0,15,0.00,CLR,,0.00,WeatherDisplay:10.37,2013-06-26 02:55:00,
2013-06-25 23:00:00,77.0,25.8,28.94,WNW,302,6.0,12.0,15,0.00,CLR,,0.00,WeatherDisplay:10.37,2013-06-26 03:00:00,
2013-06-25 23:05:00,74.1,25.0,28.94,WNW,298,5.0,8.0,16,0.00,CLR,,0.00,WeatherDisplay:10.37,2013-06-26 03:05:00,
2013-06-25 23:10:00,72.7,23.9,28.97,NW,308,0.0,6.0,16,0.00,CLR,,0.00,WeatherDisplay:10.37,2013-06-26 03:10:00,
2013-06-25 23:15:00,72.3,23.6,28.97,WNW,295,0.0,0.0,16,0.00,CLR,,0.00,WeatherDisplay:10.37,2013-06-26 03:15:00,
2013-06-25 23:20:00,72.1,23.4,28.97,West,268,0.0,0.0,16,0.00,CLR,,0.00,WeatherDisplay:10.37,2013-06-26 03:20:00,
2013-06-25 23:25:00,72.1,23.4,28.97,West,266,0.0,0.0,16,0.00,CLR,,0.00,WeatherDisplay:10.37,2013-06-26 03:25:00,
2013-06-25 23:30:00,72.1,23.4,28.97,West,266,0.0,0.0,16,0.00,CLR,,0.00,WeatherDisplay:10.37,2013-06-26 03:30:00,
2013-06-25 23:35:00,72.0,23.3,28.97,West,266,0.0,0.0,16,0.00,CLR,,0.00,WeatherDisplay:10.37,2013-06-26 03:35:00,
2013-06-25 23:40:00,72.0,23.3,28.97,West,266,0.0,0.0,16,0.00,CLR,,0.00,WeatherDisplay:10.37,2013-06-26 03:40:00,
2013-06-25 23:45:00,71.8,23.1,28.97,West,266,0.0,0.0,16,0.00,CLR,,0.00,WeatherDisplay:10.37,2013-06-26 03:45:00,
2013-06-25 23:50:00,71.5,24.3,28.97,West,266,0.0,0.0,17,0.00,CLR,,0.00,WeatherDisplay:10.37,2013-06-26 03:50:00,
2013-06-25 23:55:00,71.4,27.0,28.94,West,266,0.0,0.0,19,0.00,CLR,,0.00,WeatherDisplay:10.37,2013-06-26 03:55:00,